sat.trackr.live / text

‹ back to catalog

STARLINK-2750

NORAD 48691 · 2021-044BF

PAYLOAD ACTIVE UNKNOWN

§ Identity

Operator
Country
US
Launch date
2021-05-26
Launch site
AFETR
Launch vehicle
Mass (kg)
RCS (m²)

Purposes: comms

External: N2YO · Heavens-Above · Gunter

§ Orbital elements

Epoch: 2026-09-19T16:36:25.134048Z

Period
94.01 min
Inclination
53.1600°
Eccentricity
0.0001760
Mean motion
15.31718184 rev/d
Perigee alt
469.5 km
Apogee alt
471.9 km
Semi-major
6,848.8 km
B*
1.3920e-4
RAAN
252.4500°
Arg perigee
83.9829°
Mean anomaly
276.1373°
Rev number
29,408

§ Raw data

STARLINK-27501 48691U 21044BF  26262.69195757  .00003959  00000+0  13920-3 0  99992 48691  53.1600 252.4500 0001760  83.9829 276.1373 15.31718184294087

JSON: /api/v1/satellites/48691 · /tle

For live sub-satellite position, see the globe view (requires WebGL).

§ Visibility from observer

Set your observer location to see the next 7 days of passes ≥ 10°. The values pass through the URL so the page stays shareable.

No JS? Fill the form by hand. The geolocation button needs JavaScript.